sat.trackr.live / text

‹ back to catalog

STARLINK-31823

NORAD 59794 · 2024-093N

PAYLOAD ACTIVE UNKNOWN

§ Identity

Operator
Country
US
Launch date
2024-05-18
Launch site
AFETR
Launch vehicle
Mass (kg)
RCS (m²)

Purposes: comms

External: N2YO · Heavens-Above · Gunter

§ Orbital elements

Epoch: 2026-05-25T01:06:08.699328Z

Period
94.27 min
Inclination
43.0014°
Eccentricity
0.0001490
Mean motion
15.27576336 rev/d
Perigee alt
482.0 km
Apogee alt
484.1 km
Semi-major
6,861.2 km
B*
3.1920e-5
RAAN
137.6278°
Arg perigee
272.7890°
Mean anomaly
87.2791°
Rev number
11,437

§ Raw data

STARLINK-318231 59794U 24093N   26145.04593402  .00000616  00000+0  31920-4 0  99982 59794  43.0014 137.6278 0001490 272.7890  87.2791 15.27576336114376

JSON: /api/v1/satellites/59794 · /tle

For live sub-satellite position, see the globe view (requires WebGL).

§ Visibility from observer

Set your observer location to see the next 7 days of passes ≥ 10°. The values pass through the URL so the page stays shareable.

No JS? Fill the form by hand. The geolocation button needs JavaScript.